| time (UTC) | temp F | wind direction | speed MPH | gust MPH | rain 1hr in | rain 24hr in | rain mn in | humidity % | barometer mb |
| 20260901170403 | 77 | 329 | 1.0 | 5.0 | 0.00 | 0.00 | 0.00 | 59 | 1014.9 |
| 20260901165402 | 76 | 328 | 0.0 | 9.0 | 0.00 | 0.00 | 0.00 | 60 | 1015.0 |
| 20260901164403 | 77 | 72 | 0.0 | 4.0 | 0.00 | 0.00 | 0.00 | 59 | 1015.2 |
| 20260901163403 | 77 | 67 | 3.0 | 5.0 | 0.00 | 0.00 | 0.00 | 60 | 1015.3 |
| 20260901161403 | 75 | 61 | 0.0 | 2.0 | 0.00 | 0.00 | 0.00 | 57 | 1015.5 |
| 20260901160402 | 75 | 66 | 0.0 | 3.0 | 0.00 | 0.00 | 0.00 | 62 | 1015.6 |
| 20260901155402 | 76 | 67 | 0.0 | 4.0 | 0.00 | 0.00 | 0.00 | 60 | 1015.5 |
| 20260901152403 | 75 | 316 | 0.0 | 4.0 | 0.00 | 0.00 | 0.00 | 65 | 1015.5 |
| 20260901151402 | 75 | 312 | 0.0 | 4.0 | 0.00 | 0.00 | 0.00 | 68 | 1015.5 |
| 20260901150402 | 74 | 315 | 0.0 | 1.0 | 0.00 | 0.00 | 0.00 | 68 | 1015.6 |
| 20260901145403 | 73 | 315 | 0.0 | 3.0 | 0.00 | 0.00 | 0.00 | 72 | 1015.6 |
| 20260901144403 | 72 | 315 | 0.0 | 3.0 | 0.00 | 0.00 | 0.00 | 70 | 1015.7 |
| 20260901143403 | 70 | 38 | 0.0 | 1.0 | 0.00 | 0.00 | 0.00 | 71 | 1015.5 |
| 20260901142403 | 69 | 38 | 0.0 | 0.0 | 0.00 | 0.00 | 0.00 | 69 | 1015.4 |
| 20260901141402 | 68 | 38 | 0.0 | 3.0 | 0.00 | 0.00 | 0.00 | 69 | 1015.5 |
| 20260901140403 | 68 | 38 | 0.0 | 3.0 | 0.00 | 0.00 | 0.00 | 77 | 1015.5 |
| 20260901134403 | 65 | 38 | 0.0 | 2.0 | 0.00 | 0.00 | 0.00 | 79 | 1015.4 |
| 20260901133425 | 63 | 38 | 0.0 | 3.0 | 0.00 | 0.00 | 0.00 | 80 | 1015.6 |
| 20260901132403 | 63 | 39 | 0.0 | 2.0 | 0.00 | 0.00 | 0.00 | 80 | 1015.5 |
| 20260901131403 | 62 | 39 | 0.0 | 1.0 | 0.00 | 0.00 | 0.00 | 83 | 1015.8 |
| 20260901130403 | 61 | 39 | 0.0 | 0.0 | 0.00 | 0.00 | 0.00 | 87 | 1015.8 |
| 20260901125403 | 61 | 39 | 0.0 | 0.0 | 0.00 | 0.00 | 0.00 | 87 | 1015.9 |
| 20260901124403 | 60 | 39 | 0.0 | 0.0 | 0.00 | 0.00 | 0.00 | 88 | 1016.1 |
| 20260901123425 | 60 | 39 | 0.0 | 0.0 | 0.00 | 0.00 | 0.00 | 88 | 1016.0 |
| 20260901122404 | 60 | 39 | 0.0 | 0.0 | 0.00 | 0.00 | 0.00 | 88 | 1015.9 |
| 20260901121403 | 59 | 39 | 0.0 | 2.0 | 0.00 | 0.00 | 0.00 | 85 | 1016.0 |
| 20260901120404 | 59 | 39 | 0.0 | 1.0 | 0.00 | 0.00 | 0.00 | 87 | 1016.1 |
| 20260901115403 | 59 | 39 | 0.0 | 0.0 | 0.00 | 0.00 | 0.00 | 88 | 1016.0 |
| 20260901114404 | 59 | 39 | 0.0 | 0.0 | 0.00 | 0.00 | 0.00 | 87 | 1016.0 |
| 20260901113403 | 59 | 39 | 0.0 | 0.0 | 0.00 | 0.00 | 0.00 | 87 | 1016.0 |
| 20260901112404 | 59 | 39 | 0.0 | 0.0 | 0.00 | 0.00 | 0.00 | 86 | 1016.0 |
| 20260901111424 | 59 | 39 | 0.0 | 3.0 | 0.00 | 0.00 | 0.00 | 84 | 1015.8 |
| 20260901105403 | 59 | 334 | 0.0 | 0.0 | 0.00 | 0.00 | 0.00 | 86 | 1015.6 |
| 20260901104404 | 59 | 334 | 0.0 | 3.0 | 0.00 | 0.00 | 0.00 | 85 | 1015.6 |
| 20260901103403 | 58 | 332 | 0.0 | 2.0 | 0.00 | 0.00 | 0.00 | 86 | 1015.6 |
| 20260901102404 | 58 | 320 | 0.0 | 1.0 | 0.00 | 0.00 | 0.00 | 86 | 1015.7 |
| 20260901101403 | 58 | 321 | 0.0 | 0.0 | 0.00 | 0.00 | 0.00 | 88 | 1015.6 |
| 20260901100424 | 59 | 321 | 0.0 | 0.0 | 0.00 | 0.00 | 0.00 | 88 | 1015.7 |
| 20260901095403 | 59 | 321 | 0.0 | 0.0 | 0.00 | 0.00 | 0.00 | 86 | 1015.6 |
| 20260901094424 | 58 | 321 | 0.0 | 1.0 | 0.00 | 0.00 | 0.00 | 85 | 1015.7 |
| 20260901093404 | 58 | 321 | 0.0 | 1.0 | 0.00 | 0.00 | 0.00 | 86 | 1015.8 |
| 20260901092403 | 58 | 321 | 0.0 | 0.0 | 0.00 | 0.00 | 0.00 | 87 | 1015.8 |
| 20260901091424 | 58 | 321 | 0.0 | 0.0 | 0.00 | 0.00 | 0.00 | 87 | 1015.5 |
| 20260901090404 | 58 | 321 | 0.0 | 2.0 | 0.00 | 0.00 | 0.00 | 85 | 1015.6 |
| 20260901085403 | 58 | 321 | 0.0 | 2.0 | 0.00 | 0.00 | 0.00 | 85 | 1015.4 |
| 20260901084403 | 58 | 321 | 0.0 | 0.0 | 0.00 | 0.00 | 0.00 | 85 | 1015.5 |
| 20260901083403 | 58 | 321 | 0.0 | 0.0 | 0.00 | 0.00 | 0.00 | 86 | 1015.5 |
| 20260901082424 | 58 | 321 | 0.0 | 0.0 | 0.00 | 0.00 | 0.00 | 86 | 1015.6 |
| 20260901081403 | 58 | 321 | 0.0 | 1.0 | 0.00 | 0.00 | 0.00 | 87 | 1015.5 |
| 20260901080424 | 57 | 320 | 0.0 | 3.0 | 0.00 | 0.00 | 0.00 | 88 | 1015.6 |
| 20260901075403 | 56 | 321 | 0.0 | 0.0 | 0.00 | 0.00 | 0.00 | 90 | 1015.7 |
| 20260901074403 | 56 | 321 | 0.0 | 1.0 | 0.00 | 0.00 | 0.00 | 91 | 1015.7 |
| 20260901073404 | 55 | 321 | 0.0 | 0.0 | 0.00 | 0.00 | 0.00 | 92 | 1015.7 |
| 20260901072403 | 56 | 321 | 0.0 | 0.0 | 0.00 | 0.00 | 0.00 | 92 | 1015.6 |
| 20260901071403 | 56 | 321 | 0.0 | 1.0 | 0.00 | 0.00 | 0.00 | 92 | 1015.6 |
| 20260901070403 | 56 | 321 | 0.0 | 0.0 | 0.00 | 0.00 | 0.00 | 93 | 1015.8 |
| 20260901065403 | 55 | 321 | 0.0 | 0.0 | 0.00 | 0.00 | 0.00 | 93 | 1015.9 |
| 20260901064403 | 55 | 321 | 0.0 | 0.0 | 0.00 | 0.00 | 0.00 | 94 | 1015.9 |
| 20260901063425 | 54 | 321 | 0.0 | 0.0 | 0.00 | 0.00 | 0.00 | 93 | 1016.3 |
| 20260901062403 | 54 | 321 | 0.0 | 0.0 | 0.00 | 0.00 | 0.00 | 92 | 1016.1 |
| 20260901061403 | 53 | 321 | 0.0 | 3.0 | 0.00 | 0.00 | 0.00 | 92 | 1016.4 |
| 20260901060403 | 53 | 283 | 0.0 | 2.0 | 0.00 | 0.00 | 0.00 | 91 | 1016.3 |
| 20260901055403 | 53 | 283 | 0.0 | 0.0 | 0.00 | 0.00 | 0.00 | 91 | 1016.6 |
| 20260901054403 | 53 | 283 | 0.0 | 0.0 | 0.00 | 0.00 | 0.00 | 91 | 1016.6 |
| 20260901053445 | 53 | 283 | 0.0 | 0.0 | 0.00 | 0.00 | 0.00 | 90 | 1016.4 |
| 20260901052403 | 53 | 283 | 0.0 | 0.0 | 0.00 | 0.00 | 0.00 | 90 | 1016.5 |
| 20260901051403 | 53 | 283 | 0.0 | 0.0 | 0.00 | 0.00 | 0.00 | 90 | 1016.4 |
| 20260901050424 | 53 | 283 | 0.0 | 0.0 | 0.00 | 0.00 | 0.00 | 89 | 1016.5 |
| 20260901045403 | 54 | 283 | 0.0 | 0.0 | 0.00 | 0.00 | 0.00 | 89 | 1016.6 |
| 20260901044424 | 54 | 283 | 0.0 | 0.0 | 0.00 | 0.00 | 0.00 | 89 | 1016.5 |
| 20260901043403 | 54 | 283 | 0.0 | 0.0 | 0.00 | 0.00 | 0.00 | 88 | 1016.6 |
| 20260901042403 | 55 | 283 | 0.0 | 0.0 | 0.00 | 0.00 | 0.00 | 88 | 1016.6 |
| 20260901041424 | 55 | 283 | 0.0 | 0.0 | 0.00 | 0.00 | 0.00 | 88 | 1016.5 |
| 20260901040403 | 55 | 283 | 0.0 | 0.0 | 0.00 | 0.00 | 0.00 | 88 | 1016.5 |
| 20260901035403 | 56 | 283 | 0.0 | 0.0 | 0.00 | 0.00 | 0.00 | 87 | 1016.5 |
| 20260901034424 | 56 | 283 | 0.0 | 0.0 | 0.00 | 0.00 | 0.00 | 87 | 1016.3 |
| 20260901033403 | 56 | 283 | 0.0 | 0.0 | 0.00 | 0.00 | 0.00 | 88 | 1016.3 |
| 20260901032402 | 57 | 283 | 0.0 | 0.0 | 0.00 | 0.00 | 0.00 | 88 | 1016.4 |
| 20260901031403 | 57 | 283 | 0.0 | 0.0 | 0.00 | 0.00 | 0.00 | 88 | 1016.3 |
| 20260901030402 | 57 | 283 | 0.0 | 0.0 | 0.00 | 0.00 | 0.00 | 87 | 1016.2 |
| 20260901025403 | 57 | 283 | 0.0 | 0.0 | 0.00 | 0.00 | 0.00 | 87 | 1016.3 |
| 20260901024402 | 57 | 283 | 0.0 | 0.0 | 0.00 | 0.00 | 0.00 | 87 | 1016.4 |
| 20260901023424 | 57 | 283 | 0.0 | 0.0 | 0.00 | 0.00 | 0.00 | 86 | 1016.4 |
| 20260901022403 | 57 | 283 | 0.0 | 0.0 | 0.00 | 0.00 | 0.00 | 86 | 1016.4 |
| 20260901021402 | 57 | 283 | 0.0 | 0.0 | 0.00 | 0.01 | 0.00 | 85 | 1016.5 |
| 20260901020424 | 56 | 283 | 0.0 | 0.0 | 0.00 | 0.01 | 0.00 | 85 | 1016.5 |
| 20260901015403 | 56 | 283 | 0.0 | 0.0 | 0.00 | 0.01 | 0.00 | 85 | 1016.5 |
| 20260901014402 | 56 | 283 | 0.0 | 0.0 | 0.00 | 0.01 | 0.00 | 84 | 1016.6 |
| 20260901013445 | 56 | 283 | 0.0 | 0.0 | 0.00 | 0.01 | 0.00 | 84 | 1016.7 |
| 20260901012403 | 56 | 283 | 0.0 | 0.0 | 0.00 | 0.01 | 0.00 | 83 | 1016.7 |
| 20260901011424 | 57 | 283 | 0.0 | 0.0 | 0.00 | 0.01 | 0.00 | 83 | 1016.7 |
| 20260901010403 | 57 | 283 | 0.0 | 0.0 | 0.00 | 0.01 | 0.00 | 83 | 1016.6 |
| 20260901005403 | 57 | 283 | 0.0 | 0.0 | 0.00 | 0.01 | 0.00 | 82 | 1016.6 |
| 20260901003424 | 57 | 283 | 0.0 | 0.0 | 0.00 | 0.01 | 0.00 | 82 | 1016.6 |
| 20260901002403 | 57 | 283 | 0.0 | 0.0 | 0.00 | 0.01 | 0.00 | 83 | 1016.6 |
| 20260901001403 | 57 | 283 | 0.0 | 0.0 | 0.00 | 0.01 | 0.00 | 82 | 1016.5 |
| 20260901000408 | 58 | 283 | 0.0 | 0.0 | 0.00 | 0.01 | 0.00 | 82 | 1016.5 |
| 20260831235408 | 58 | 283 | 0.0 | 0.0 | 0.00 | 0.01 | 0.00 | 81 | 1016.4 |
| 20260831234429 | 59 | 283 | 0.0 | 0.0 | 0.00 | 0.01 | 0.00 | 81 | 1016.5 |
| 20260831233408 | 60 | 283 | 0.0 | 0.0 | 0.00 | 0.01 | 0.00 | 80 | 1016.5 |
| 20260831232408 | 61 | 283 | 0.0 | 0.0 | 0.00 | 0.01 | 0.00 | 80 | 1016.4 |
| 20260831231408 | 62 | 283 | 0.0 | 0.0 | 0.00 | 0.01 | 0.00 | 81 | 1016.4 |
| 20260831230429 | 63 | 283 | 0.0 | 0.0 | 0.00 | 0.01 | 0.00 | 79 | 1016.4 |
| 20260831225408 | 64 | 283 | 0.0 | 0.0 | 0.00 | 0.01 | 0.00 | 78 | 1016.5 |
| 20260831224451 | 66 | 283 | 0.0 | 0.0 | 0.00 | 0.01 | 0.00 | 78 | 1016.6 |
| 20260831223429 | 67 | 283 | 0.0 | 0.0 | 0.00 | 0.01 | 0.00 | 74 | 1016.6 |
| 20260831222408 | 69 | 283 | 0.0 | 0.0 | 0.00 | 0.01 | 0.00 | 71 | 1016.7 |
| 20260831221408 | 71 | 283 | 0.0 | 0.0 | 0.00 | 0.01 | 0.00 | 65 | 1016.6 |
| 20260831220408 | 75 | 283 | 0.0 | 0.0 | 0.00 | 0.01 | 0.00 | 58 | 1016.6 |
| 20260831215408 | 77 | 283 | 0.0 | 0.0 | 0.00 | 0.01 | 0.00 | 55 | 1016.8 |
| 20260831214408 | 77 | 283 | 0.0 | 0.0 | 0.00 | 0.01 | 0.00 | 52 | 1016.7 |
| 20260831213408 | 77 | 283 | 0.0 | 0.0 | 0.00 | 0.01 | 0.00 | 56 | 1016.7 |
| 20260831212408 | 77 | 283 | 0.0 | 2.0 | 0.00 | 0.01 | 0.00 | 55 | 1016.7 |
| 20260831211408 | 77 | 283 | 0.0 | 4.0 | 0.00 | 0.01 | 0.00 | 47 | 1016.7 |
| 20260831210408 | 78 | 281 | 0.0 | 2.0 | 0.00 | 0.01 | 0.00 | 46 | 1016.8 |
| 20260831205408 | 79 | 275 | 0.0 | 3.0 | 0.00 | 0.01 | 0.00 | 48 | 1016.8 |
| 20260831204408 | 79 | 274 | 0.0 | 0.0 | 0.00 | 0.01 | 0.00 | 43 | 1016.9 |
| 20260831203408 | 79 | 273 | 0.0 | 1.0 | 0.00 | 0.01 | 0.00 | 42 | 1016.9 |
| 20260831202408 | 79 | 274 | 0.0 | 2.0 | 0.00 | 0.01 | 0.00 | 49 | 1016.9 |
| 20260831201408 | 79 | 275 | 0.0 | 0.0 | 0.00 | 0.01 | 0.00 | 49 | 1016.8 |
| 20260831200408 | 79 | 268 | 0.0 | 3.0 | 0.00 | 0.01 | 0.00 | 47 | 1017.0 |
| 20260831195408 | 78 | 268 | 0.0 | 2.0 | 0.00 | 0.01 | 0.00 | 44 | 1017.1 |
| 20260831194408 | 79 | 268 | 0.0 | 4.0 | 0.00 | 0.01 | 0.00 | 44 | 1017.3 |
| 20260831193408 | 79 | 267 | 1.0 | 4.0 | 0.00 | 0.01 | 0.00 | 50 | 1017.6 |
| 20260831192408 | 79 | 261 | 0.0 | 6.0 | 0.00 | 0.01 | 0.00 | 48 | 1017.7 |
| 20260831191407 | 78 | 252 | 0.0 | 4.0 | 0.00 | 0.01 | 0.00 | 46 | 1017.8 |
| 20260831190408 | 77 | 268 | 1.0 | 8.0 | 0.00 | 0.01 | 0.00 | 45 | 1017.8 |
| 20260831185408 | 77 | 274 | 1.0 | 8.0 | 0.00 | 0.01 | 0.00 | 43 | 1017.8 |
| 20260831184408 | 77 | 200 | 1.0 | 4.0 | 0.00 | 0.01 | 0.00 | 53 | 1017.9 |
| 20260831183407 | 76 | 215 | 2.0 | 6.0 | 0.00 | 0.02 | 0.00 | 59 | 1018.0 |
| 20260831182408 | 76 | 195 | 3.0 | 6.0 | 0.00 | 0.02 | 0.00 | 62 | 1018.0 |
| 20260831181408 | 76 | 226 | 3.0 | 6.0 | 0.00 | 0.03 | 0.00 | 59 | 1018.1 |
| 20260831180408 | 76 | 235 | 2.0 | 7.0 | 0.00 | 0.03 | 0.00 | 60 | 1018.3 |
| 20260831175407 | 76 | 239 | 4.0 | 8.0 | 0.00 | 0.03 | 0.00 | 59 | 1018.3 |
| 20260831174408 | 77 | 268 | 0.0 | 4.0 | 0.00 | 0.03 | 0.00 | 65 | 1018.3 |
| 20260831173407 | 75 | 272 | 1.0 | 8.0 | 0.00 | 0.03 | 0.00 | 69 | 1018.4 |
| 20260831172429 | 74 | 247 | 1.0 | 6.0 | 0.00 | 0.03 | 0.00 | 65 | 1018.4 |
| 20260831171408 | 75 | 250 | 2.0 | 5.0 | 0.00 | 0.03 | 0.00 | 62 | 1018.4 |